"2007/01/01",  5.8,  6.4,  5.5
"2007/01/02",  6.0,  6.3,  5.9
"2007/01/03",  6.4,  6.6,  6.3
"2007/01/04",  6.4,  6.6,  6.2
"2007/01/05",  5.9,  6.4,  5.6
"2007/01/06",  5.9,  6.1,  5.8
"2007/01/07",  5.7,  5.9,  5.5
"2007/01/08",  5.4,  5.7,  5.1
"2007/01/09",  5.2,  5.5,  4.8
"2007/01/10",  5.1,  5.4,  4.9
"2007/01/11",  5.0,  5.4,  4.7
"2007/01/12",  4.9,  5.1,  4.7
"2007/01/13",  4.8,  5.0,  4.6
"2007/01/14",  4.6,  5.0,  4.3
"2007/01/15",  4.3,  4.7,  4.0
"2007/01/16",  4.3,  4.7,  4.1
"2007/01/17",  4.7,  5.0,  4.5
"2007/01/18",  5.2,  5.7,  4.9
"2007/01/19",  5.3,  5.6,  4.9
"2007/01/20",  4.9,  5.4,  4.7
"2007/01/21",  4.9,  5.3,  4.7
"2007/01/22",  5.4,  5.8,  5.2
"2007/01/23",  5.4,  5.8,  5.0
"2007/01/24",  5.3,  5.5,  5.1
"2007/01/25",  4.9,  5.4,  4.5
"2007/01/26",  4.7,  5.1,  4.4
"2007/01/27",  5.0,  5.6,  4.8
"2007/01/28",  5.4,  5.7,  5.1
"2007/01/29",  5.6,  5.8,  5.5
"2007/01/30",  5.4,  5.8,  5.0
"2007/01/31",  5.6,  6.0,  5.2
"2007/02/01",  5.9,  6.2,  5.6
"2007/02/02",  5.7,  6.2,  5.3
"2007/02/03",  5.1,  5.7,  4.7
"2007/02/04",  5.0,  5.2,  4.7
"2007/02/05",  4.8,  5.2,  4.4
"2007/02/06",  5.2,  5.8,  4.9
"2007/02/07",  5.6,  5.9,  5.3
"2007/02/08",  5.5,  5.9,  5.1
"2007/02/09",  5.8,  6.3,  5.5
"2007/02/10",  6.5,  7.0,  6.3
"2007/02/11",  6.8,  7.0,  6.5
"2007/02/12",  6.4,  6.9,  6.0
"2007/02/13",  6.3,  6.6,  6.0
"2007/02/14",  6.6,  6.9,  6.5
"2007/02/15",  7.3,  7.8,  6.9
"2007/02/16",  7.0,  7.7,  6.6
"2007/02/17",  6.5,  7.0,  6.2
"2007/02/18",  6.6,  6.7,  6.4
"2007/02/19",  6.1,  6.6,  5.6
"2007/02/20",  6.3,  6.6,  6.2
"2007/02/21",  6.3,  7.1,  6.0
"2007/02/22",  6.7,  7.1,  6.3
"2007/02/23",  7.1,  7.4,  6.9
"2007/02/24",  7.1,  7.4,  6.8
"2007/02/25",  6.4,  7.2,  6.0
"2007/02/26",  6.0,  6.5,  5.6
"2007/02/27",  6.2,  6.7,  5.8
"2007/02/28",  6.9,  7.3,  6.7
"2007/03/01",  6.9,  7.3,  6.4
"2007/03/02",  6.9,  7.3,  6.5
"2007/03/03",  7.1,  7.6,  6.8
"2007/03/04",  7.9,  8.8,  7.6
"2007/03/05",  8.9,  9.2,  8.8
"2007/03/06",  9.3,  9.4,  9.2
"2007/03/07",  8.7,  9.3,  8.3
"2007/03/08",  8.4,  8.8,  7.9
"2007/03/09",  8.2,  8.7,  7.9
"2007/03/10",  7.9,  8.3,  7.6
"2007/03/11",  8.3,  8.5,  8.2
"2007/03/12",  7.7,  8.4,  7.2
"2007/03/13",  7.3,  7.8,  6.8
"2007/03/14",  7.3,  7.7,  6.8
"2007/03/15",  7.3,  7.7,  6.8
"2007/03/16",  7.6,  7.9,  7.3
"2007/03/17",  7.6,  7.9,  7.3
"2007/03/18",  7.4,  7.8,  6.9
"2007/03/19",  7.5,  8.0,  7.0
"2007/03/20",  7.9,  8.5,  7.5
"2007/03/21",  8.3,  8.7,  7.9
"2007/03/22",  8.6,  9.2,  8.2
"2007/03/23",  8.9,  9.5,  8.4
"2007/03/24",  9.4,  9.8,  9.0
"2007/03/25", 10.1, 10.5,  9.8
"2007/03/26", 10.3, 10.7,  9.9
"2007/03/27", 10.3, 10.7, 10.0
"2007/03/28", 10.3, 11.1,  9.9
"2007/03/29", 11.0, 11.6, 10.7
"2007/03/30", 11.6, 12.0, 11.3
"2007/03/31", 11.3, 12.0, 11.0
"2007/04/01", 11.4, 12.3, 11.0
"2007/04/02", 12.1, 12.3, 11.9
"2007/04/03", 11.4, 12.0, 10.6
"2007/04/04", 10.1, 10.6,  9.8
"2007/04/05",  9.8, 10.4,  9.3
"2007/04/06", 10.1, 10.4,  9.8
"2007/04/07", 10.4, 11.3,  9.9
"2007/04/08", 11.5, 12.3, 11.1
"2007/04/09", 12.1, 12.3, 11.7
"2007/04/10", 11.8, 12.2, 11.3
"2007/04/11", 11.9, 12.2, 11.7
"2007/04/12", 12.0, 12.7, 11.5
"2007/04/13", 12.3, 12.7, 12.0
"2007/04/14", 12.9, 13.9, 12.5
"2007/04/15", 13.4, 13.9, 12.9
"2007/04/16", 12.9, 13.5, 12.3
"2007/04/17", 11.7, 12.4, 11.4
"2007/04/18", 11.1, 11.6, 10.7
"2007/04/19", 10.3, 10.7, 10.1
"2007/04/20", 10.4, 11.1,  9.9
"2007/04/21", 11.5, 12.4, 11.1
"2007/04/22", 12.7, 13.3, 12.4
"2007/04/23", 13.1, 13.3, 12.8
"2007/04/24", 12.5, 12.8, 12.1
"2007/04/25", 12.7, 13.0, 12.6
"2007/04/26", 13.1, 13.8, 12.7
"2007/04/27", 13.3, 13.8, 12.8
"2007/04/28", 13.4, 13.7, 12.9
"2007/04/29", 13.3, 14.1, 12.8
"2007/04/30", 14.0, 14.9, 13.4
"2007/05/01", 14.5, 14.9, 14.3
"2007/05/02", 14.5, 15.3, 14.1
"2007/05/03", 15.3, 16.2, 14.8
"2007/05/04", 16.1, 16.9, 15.6
"2007/05/05", 16.9, 17.6, 16.5
"2007/05/06", 17.2, 17.6, 16.8
"2007/05/07", 16.5, 16.8, 16.1
"2007/05/08", 16.7, 17.4, 16.2
"2007/05/09", 17.3, 18.0, 16.9
"2007/05/10", 17.9, 18.3, 17.6
"2007/05/11", 17.7, 18.2, 17.2
"2007/05/12", 17.3, 17.9, 16.8
"2007/05/13", 17.4, 17.7, 17.2
"2007/05/14", 17.1, 17.4, 16.7
"2007/05/15", 17.2, 17.5, 16.8
"2007/05/16", 17.0, 17.5, 16.5
"2007/05/17", 17.1, 17.5, 16.9
"2007/05/18", 16.7, 17.1, 16.4
"2007/05/19", 16.9, 17.0, 16.8
"2007/05/20", 16.7, 17.5, 16.2
"2007/05/21", 17.3, 17.9, 16.8
"2007/05/22", 17.8, 18.5, 17.4
"2007/05/23", 18.5, 19.3, 18.0
"2007/05/24", 19.2, 19.6, 18.8
"2007/05/25", 19.0, 19.6, 18.4
"2007/05/26", 18.6, 19.4, 18.2
"2007/05/27", 19.3, 20.0, 18.9
"2007/05/28", 19.3, 20.0, 19.0
"2007/05/29", 18.6, 19.1, 18.2
"2007/05/30", 18.6, 18.8, 18.4
"2007/05/31", 18.5, 18.9, 18.1
"2007/06/01", 18.6, 18.9, 18.3
"2007/06/02", 18.7, 19.4, 18.2
"2007/06/03", 19.3, 19.9, 18.9
"2007/06/04", 19.8, 20.3, 19.4
"2007/06/05", 20.1, 20.5, 19.8
"2007/06/06", 20.3, 20.9, 19.9
"2007/06/07", 20.6, 20.9, 20.4
"2007/06/08", 20.4, 20.8, 20.1
"2007/06/09", 20.5, 20.8, 20.3
"2007/06/10", 20.4, 20.6, 20.2
"2007/06/11", 20.1, 20.7, 19.7
"2007/06/12", 20.7, 21.5, 20.3
"2007/06/13", 21.4, 22.0, 21.0
"2007/06/14", 21.7, 22.0, 21.5
"2007/06/15", 21.2, 21.7, 20.8
"2007/06/16", 21.5, 22.0, 21.0
"2007/06/17", 21.7, 22.1, 21.3
"2007/06/18", 21.8, 22.1, 21.5
"2007/06/19", 22.0, 22.7, 21.6
"2007/06/20", 22.6, 23.3, 22.2
"2007/06/21", 23.2, 23.7, 22.8
"2007/06/22", 23.2, 23.7, 22.8
"2007/06/23", 22.7, 23.3, 22.3
"2007/06/24", 22.8, 23.3, 22.4
"2007/06/25", 22.0, 22.4, 21.7
"2007/06/26", 21.6, 21.8, 21.4
"2007/06/27", 21.9, 22.8, 21.4
"2007/06/28", 22.8, 23.4, 22.5
"2007/06/29", 23.1, 23.4, 22.9
"2007/06/30", 22.8, 23.2, 22.7
"2007/07/01", 22.3, 22.7, 22.0
"2007/07/02", 22.2, 22.6, 22.1
"2007/07/03", 22.1, 22.6, 21.8
"2007/07/04", 22.0, 22.6, 21.5
"2007/07/05", 21.4, 21.7, 21.1
"2007/07/06", 21.6, 22.4, 21.2
"2007/07/07", 22.1, 22.4, 21.9
"2007/07/08", 22.0, 22.6, 21.6
"2007/07/09", 22.4, 22.7, 22.1
"2007/07/10", 22.3, 22.7, 22.1
"2007/07/11", 21.9, 22.2, 21.8
"2007/07/12", 21.9, 22.2, 21.7
"2007/07/13", 22.0, 22.1, 21.8
"2007/07/14", 21.5, 21.9, 20.7
"2007/07/15", 21.2, 21.8, 20.6
"2007/07/16", 21.6, 22.0, 21.3
"2007/07/17", 21.5, 22.0, 21.2
"2007/07/18", 20.9, 21.2, 20.7
"2007/07/19", 20.8, 21.2, 20.5
"2007/07/20", 21.2, 21.9, 20.8
"2007/07/21", 21.8, 21.9, 21.6
"2007/07/22", 21.9, 22.2, 21.7
"2007/07/23", 22.2, 22.4, 22.1
"2007/07/24", 22.4, 23.2, 22.0
"2007/07/25", 23.2, 23.8, 22.7
"2007/07/26", 23.6, 24.0, 23.4
"2007/07/27", 24.0, 24.7, 23.6
"2007/07/28", 24.5, 25.0, 24.1
"2007/07/29", 24.8, 25.0, 24.6
"2007/07/30", 24.0, 24.8, 23.2
"2007/07/31", 22.9, 23.3, 22.6
"2007/08/01", 23.0, 23.6, 22.7
"2007/08/02", 23.8, 24.5, 23.5
"2007/08/03", 24.4, 24.8, 24.2
"2007/08/04", 24.8, 25.3, 24.4
"2007/08/05", 25.3, 25.9, 24.9
"2007/08/06", 25.7, 26.2, 25.3
"2007/08/07", 26.0, 26.3, 25.6
"2007/08/08", 26.1, 26.5, 25.8
"2007/08/09", 26.4, 26.9, 26.0
"2007/08/10", 26.7, 27.2, 26.3
"2007/08/11", 27.0, 27.5, 26.6
"2007/08/12", 27.2, 27.5, 26.9
"2007/08/13", 27.0, 27.5, 26.7
"2007/08/14", 27.0, 27.5, 26.6
"2007/08/15", 27.4, 28.1, 27.1
"2007/08/16", 28.0, 28.6, 27.7
"2007/08/17", 28.3, 28.6, 28.0
"2007/08/18", 27.7, 28.4, 27.1
"2007/08/19", 26.7, 27.1, 26.4
"2007/08/20", 27.0, 27.5, 26.6
"2007/08/21", 27.5, 27.9, 27.2
"2007/08/22", 27.7, 28.1, 27.4
"2007/08/23", 27.4, 28.1, 27.0
"2007/08/24", 26.5, 27.0, 26.2
"2007/08/25", 26.5, 27.0, 26.1
"2007/08/26", 26.8, 27.3, 26.5
"2007/08/27", 27.1, 27.3, 26.8
"2007/08/28", 27.0, 27.3, 26.8
"2007/08/29", 26.5, 27.1, 26.1
"2007/08/30", 25.6, 26.1, 25.1
"2007/08/31", 24.6, 25.1, 24.4
"2007/09/01", 24.2, 24.5, 23.9
"2007/09/02", 23.7, 24.1, 23.4
"2007/09/03", 24.1, 24.7, 23.8
"2007/09/04", 24.7, 25.3, 24.4
"2007/09/05", 25.2, 25.4, 25.0
"2007/09/06", 25.1, 25.4, 24.9
"2007/09/07", 24.4, 24.9, 24.2
"2007/09/08", 24.3, 25.0, 24.0
"2007/09/09", 24.9, 25.3, 24.6
"2007/09/10", 25.1, 25.3, 24.9
"2007/09/11", 24.8, 25.1, 24.4
"2007/09/12", 23.6, 24.4, 23.0
"2007/09/13"," * "," * "," * "
"2007/09/14"," * "," * "," * "
"2007/09/15", 23.5, 24.0, 23.2
"2007/09/16", 24.0, 24.5, 23.7
"2007/09/17", 24.5, 24.9, 24.2
"2007/09/18", 24.5, 24.9, 24.2
"2007/09/19", 23.9, 24.2, 23.7
"2007/09/20", 24.1, 24.6, 23.8
"2007/09/21", 24.4, 24.7, 24.0
"2007/09/22", 24.5, 24.9, 24.2
"2007/09/23", 24.5, 24.9, 24.1
"2007/09/24", 23.6, 24.1, 23.3
"2007/09/25", 23.2, 23.5, 22.9
"2007/09/26", 23.2, 23.5, 22.9
"2007/09/27", 23.0, 23.3, 22.8
"2007/09/28", 23.1, 23.6, 22.8
"2007/09/29", 23.1, 23.6, 22.5
"2007/09/30", 21.8, 22.5, 20.8
"2007/10/01", 20.5, 20.9, 20.3
"2007/10/02", 20.2, 20.5, 20.0
"2007/10/03", 20.3, 20.4, 20.1
"2007/10/04", 20.4, 20.8, 20.1
"2007/10/05", 20.8, 21.2, 20.6
"2007/10/06", 20.7, 21.2, 20.5
"2007/10/07", 20.1, 20.5, 19.7
"2007/10/08", 19.9, 20.1, 19.7
"2007/10/09", 19.9, 20.0, 19.7
"2007/10/10", 19.5, 19.7, 19.3
"2007/10/11", 19.4, 19.7, 19.0
"2007/10/12", 19.7, 19.9, 19.5
"2007/10/13", 19.7, 19.9, 19.5
"2007/10/14", 19.3, 19.6, 19.1
"2007/10/15", 19.1, 19.3, 18.9
"2007/10/16", 18.9, 19.3, 18.6
"2007/10/17", 18.4, 18.6, 18.2
"2007/10/18", 18.1, 18.5, 17.9
"2007/10/19", 18.0, 18.2, 17.9
"2007/10/20", 17.9, 18.2, 17.7
"2007/10/21", 17.8, 18.1, 17.5
"2007/10/22", 17.2, 17.7, 16.8
"2007/10/23", 17.0, 17.2, 16.7
"2007/10/24", 16.9, 17.2, 16.6
"2007/10/25", 16.6, 17.0, 16.3
"2007/10/26", 16.8, 17.0, 16.7
"2007/10/27", 16.7, 17.0, 15.6
"2007/10/28", 15.8, 16.3, 15.5
"2007/10/29", 16.3, 16.6, 16.1
"2007/10/30", 16.4, 16.6, 16.2
"2007/10/31", 16.5, 16.7, 16.3
"2007/11/01", 16.4, 16.7, 16.3
"2007/11/02", 16.4, 16.5, 16.2
"2007/11/03", 15.8, 16.2, 15.7
"2007/11/04", 15.3, 15.7, 15.0
"2007/11/05", 15.3, 15.5, 15.1
"2007/11/06", 15.4, 15.5, 15.3
"2007/11/07", 15.3, 15.5, 15.1
"2007/11/08", 14.8, 15.2, 14.4
"2007/11/09", 14.6, 14.8, 14.4
"2007/11/10", 14.6, 14.8, 14.4
"2007/11/11", 14.2, 14.4, 14.1
"2007/11/12", 14.1, 14.3, 13.9
"2007/11/13", 13.8, 14.2, 13.6
"2007/11/14", 13.7, 14.0, 13.5
"2007/11/15", 13.7, 14.0, 13.5
"2007/11/16", 13.5, 13.9, 13.2
"2007/11/17", 12.8, 13.3, 12.5
"2007/11/18", 12.2, 12.6, 11.9
"2007/11/19", 11.9, 12.3, 11.6
"2007/11/20", 11.5, 11.7, 11.4
"2007/11/21", 11.0, 11.4, 10.8
"2007/11/22", 10.7, 11.1, 10.4
"2007/11/23", 10.1, 10.6,  9.8
"2007/11/24",  9.7, 10.1,  9.4
"2007/11/25",  9.6,  9.9,  9.3
"2007/11/26",  9.7, 10.0,  9.5
"2007/11/27",  9.9, 10.1,  9.8
"2007/11/28", 10.1, 10.1, 10.0
"2007/11/29",  9.9, 10.1,  9.9
"2007/11/30",  9.8,  9.9,  9.7
"2007/12/01",  9.8, 10.1,  9.5
"2007/12/02",  9.7, 10.1,  9.4
"2007/12/03",  9.3,  9.8,  9.0
"2007/12/04",  8.9,  9.1,  8.7
"2007/12/05",  8.5,  9.1,  8.2
"2007/12/06",  8.0,  8.5,  7.7
"2007/12/07",  7.8,  8.1,  7.5
"2007/12/08",  8.0,  8.3,  7.8
"2007/12/09",  8.2,  8.4,  7.9
"2007/12/10",  7.9,  8.4,  7.6
"2007/12/11",  7.9,  8.3,  7.7
"2007/12/12",  8.2,  8.5,  8.0
"2007/12/13",  8.5,  8.6,  8.4
"2007/12/14",  8.4,  8.6,  8.1
"2007/12/15",  7.9,  8.5,  7.5
"2007/12/16",  7.4,  7.9,  7.1
"2007/12/17",  6.7,  7.3,  6.4
"2007/12/18",  6.2,  6.5,  5.8
"2007/12/19",  6.1,  6.4,  5.9
"2007/12/20",  6.2,  6.6,  6.0
"2007/12/21",  6.2,  6.6,  5.9
"2007/12/22",  6.2,  6.4,  6.1
"2007/12/23",  6.3,  6.7,  6.2
"2007/12/24",  6.8,  7.1,  6.5
"2007/12/25",  6.5,  7.0,  6.2
"2007/12/26",  6.0,  6.4,  5.8
"2007/12/27",  5.8,  6.1,  5.5
"2007/12/28",  5.7,  5.9,  5.4
"2007/12/29",  6.5,  7.2,  5.9
"2007/12/30",  7.4,  7.6,  7.1
"2007/12/31",  6.6,  7.4,  6.2
